Weather History for PADQ - April, 2013

Change the Weather History Date:

Friday, April 5, 2013

  Actual Average Record
Temperature  
Mean Temperature 40 °F 35 °F  
Max Temperature 43 °F 40 °F 60 °F (1963)
Min Temperature 36 °F 30 °F 14 °F (1970)
Degree Days  
Heating Degree Days 25 30  
Month to date heating degree days 138 150  
Since 1 July heating degree days 7077 7021  
Cooling Degree Days 0    
Month to date cooling degree days 0  
Year to date cooling degree days 0  
Moisture  
Dew Point 28 °F    
Average Humidity 0    
Maximum Humidity 0    
Minimum Humidity 0    
Precipitation  
Precipitation T in 0.20 in 1.52 in (2004)
Month to date precipitation 0.14 0.96  
Year to date precipitation 20.79 20.92  
Snow  
Snow T in 0.40 in 6.90 in (2005)
Month to date snowfall 0.1 2.1  
Since 1 July snowfall 60.2 62.8  
Snow Depth 0.00 in    
Sea Level Pressure  
Sea Level Pressure 29.54 in    
Wind  
Wind Speed 10 mph (NE)    
Max Wind Speed 17 mph    
Max Gust Speed 21 mph    
Visibility 10 miles    
Events Snow    
T = Trace of Precipitation, MM = Missing Value Source: NWS Daily Summary

Daily Weather History Graph

Daily Weather History Graph

Search for Another Location

Airport or City:

Trip Planner

Search our weather history database for the weather conditions in past years. The results will help you decide how hot, cold, wet, or windy it might be!

Date:

Astronomy

Apr. 05, 2013 Rise Set
Actual Time 7:25 AM AKDT 9:00 PM AKDT
Civil Twilight 6:45 AM AKDT 9:41 PM AKDT
Nautical Twilight 5:54 AM AKDT 10:32 PM AKDT
Astronomical Twilight 4:55 AM AKDT 11:31 PM AKDT
Moon 5:35 AM AKDT (4/5) 3:44 PM AKDT (4/5)
Length of Visible Light 14h 56m
Length of Day
13h 34m
Waning Crescent, 22% of the Moon is Illuminated
Apr 5
Waning Crescent
Apr 10
New
Apr 18
First Quarter
Apr 25
Full
May 2
Last Quarter

Hourly Weather History & Observations

Time (AKDT) Temp. Windchill Dew Point Humidity Pressure Visibility Wind Dir Wind Speed Gust Speed Precip Events Conditions
12:53 AM 36.0 °F 28.0 °F 28.9 °F 76% 29.68 in 10.0 mi NE 11.5 mph - 0.00 in   Overcast
1:53 AM 36.0 °F 28.5 °F 28.9 °F 76% 29.66 in 10.0 mi NE 10.4 mph - 0.00 in   Overcast
2:53 AM 36.0 °F 27.5 °F 28.9 °F 76% 29.65 in 10.0 mi NE 12.7 mph - N/A   Overcast
3:53 AM 36.0 °F 29.6 °F 30.0 °F 79% 29.63 in 9.0 mi NE 8.1 mph - 0.00 in Snow Light Snow
4:53 AM 37.0 °F 28.9 °F 27.0 °F 67% 29.61 in 9.0 mi NNE 12.7 mph - 0.00 in Snow Light Snow
5:53 AM 37.0 °F 29.8 °F 26.1 °F 65% 29.59 in 10.0 mi NNE 10.4 mph - 0.00 in   Overcast
6:53 AM 37.0 °F 29.3 °F 26.1 °F 65% 29.58 in 10.0 mi NNE 11.5 mph - N/A   Overcast
7:53 AM 37.0 °F 30.4 °F 25.0 °F 62% 29.57 in 10.0 mi North 9.2 mph - N/A   Overcast
8:53 AM 37.0 °F 28.5 °F 26.1 °F 65% 29.55 in 10.0 mi NNE 13.8 mph - N/A   Mostly Cloudy
9:53 AM 37.9 °F 30.0 °F 28.0 °F 68% 29.55 in 10.0 mi NE 12.7 mph - N/A   Mostly Cloudy
10:53 AM 37.9 °F 29.2 °F 28.0 °F 68% 29.54 in 10.0 mi NE 15.0 mph - N/A   Mostly Cloudy
11:53 AM 39.9 °F 31.8 °F 30.9 °F 70% 29.54 in 10.0 mi NE 15.0 mph - N/A   Mostly Cloudy
12:53 PM 41.0 °F 34.3 °F 30.9 °F 67% 29.54 in 10.0 mi NE 11.5 mph - N/A   Mostly Cloudy
1:53 PM 42.1 °F 36.6 °F 28.9 °F 60% 29.53 in 10.0 mi ENE 9.2 mph - N/A   Mostly Cloudy
2:53 PM 41.0 °F 34.7 °F 30.9 °F 67% 29.52 in 10.0 mi ENE 10.4 mph - N/A   Mostly Cloudy
3:53 PM 42.1 °F 36.6 °F 28.9 °F 60% 29.51 in 10.0 mi East 9.2 mph - N/A   Mostly Cloudy
4:53 PM 42.1 °F 36.6 °F 28.9 °F 60% 29.50 in 10.0 mi East 9.2 mph - N/A   Mostly Cloudy
5:53 PM 41.0 °F 35.8 °F 28.9 °F 62% 29.49 in 10.0 mi East 8.1 mph - N/A   Scattered Clouds
6:53 PM 39.9 °F 33.9 °F 28.0 °F 63% 29.48 in 10.0 mi East 9.2 mph - N/A   Scattered Clouds
7:53 PM 39.0 °F 33.4 °F 28.0 °F 65% 29.48 in 10.0 mi East 8.1 mph - N/A   Mostly Cloudy
8:53 PM 37.0 °F 31.6 °F 28.0 °F 70% 29.47 in 10.0 mi East 6.9 mph - N/A   Scattered Clouds
9:53 PM 37.0 °F 31.6 °F 28.0 °F 70% 29.47 in 10.0 mi East 6.9 mph - N/A   Scattered Clouds
10:53 PM 32.0 °F 28.7 °F 27.0 °F 82% 29.47 in 10.0 mi West 3.5 mph - N/A   Scattered Clouds
11:53 PM 30.0 °F 26.5 °F 26.1 °F 85% 29.47 in 10.0 mi West 3.5 mph - N/A   Scattered Clouds